Time,TemperatureF,DewpointF,PressureIn,WindDirection,WindDirectionDegrees,WindSpeedMPH,WindSpeedGustMPH,Humidity,HourlyPrecipIn,Conditions,Clouds,dailyrainin,SoftwareType,DateUTC
2013-01-21 00:14:00,51.4,45.0,30.13,South,186,0.0,-999.0,78,-99.99,,,0.00,weatherlink.com 1.10,2013-01-21 06:14:00,
2013-01-21 00:29:00,51.4,45.0,30.14,South,186,0.0,-999.0,78,-99.99,,,0.00,weatherlink.com 1.10,2013-01-21 06:29:00,
2013-01-21 00:44:00,50.7,44.0,30.14,South,186,0.0,-999.0,78,-99.99,,,0.00,weatherlink.com 1.10,2013-01-21 06:44:00,
2013-01-21 00:59:00,50.1,44.0,30.14,South,186,0.0,-999.0,79,-99.99,,,0.00,weatherlink.com 1.10,2013-01-21 06:59:00,
2013-01-21 01:14:00,49.4,44.0,30.14,South,186,0.0,-999.0,80,-99.99,,,0.00,weatherlink.com 1.10,2013-01-21 07:14:00,
2013-01-21 01:29:00,48.3,42.0,30.14,South,186,0.0,-999.0,80,-99.99,,,0.00,weatherlink.com 1.10,2013-01-21 07:29:00,
2013-01-21 01:44:00,47.7,42.0,30.14,South,186,0.0,-999.0,81,-99.99,,,0.00,weatherlink.com 1.10,2013-01-21 07:44:00,
2013-01-21 01:59:00,47.5,42.0,30.14,South,186,0.0,-999.0,82,-99.99,,,0.00,weatherlink.com 1.10,2013-01-21 07:59:00,
2013-01-21 02:14:00,47.5,42.0,30.14,South,186,0.0,-999.0,82,-99.99,,,0.00,weatherlink.com 1.10,2013-01-21 08:14:00,
2013-01-21 02:29:00,46.6,41.0,30.14,South,186,0.0,-999.0,82,-99.99,,,0.00,weatherlink.com 1.10,2013-01-21 08:29:00,
2013-01-21 02:44:00,45.8,41.0,30.15,South,186,0.0,-999.0,83,-99.99,,,0.00,weatherlink.com 1.10,2013-01-21 08:44:00,
2013-01-21 02:59:00,45.9,41.0,30.15,South,186,0.0,-999.0,84,-99.99,,,0.00,weatherlink.com 1.10,2013-01-21 08:59:00,
2013-01-21 03:14:00,45.3,41.0,30.15,South,186,0.0,-999.0,84,-99.99,,,0.00,weatherlink.com 1.10,2013-01-21 09:14:00,
2013-01-21 03:29:00,45.2,41.0,30.15,South,186,0.0,-999.0,85,-99.99,,,0.00,weatherlink.com 1.10,2013-01-21 09:29:00,
2013-01-21 03:44:00,45.2,41.0,30.15,South,186,0.0,-999.0,85,-99.99,,,0.00,weatherlink.com 1.10,2013-01-21 09:44:00,
2013-01-21 03:59:00,44.6,40.0,30.15,South,186,0.0,-999.0,85,-99.99,,,0.00,weatherlink.com 1.10,2013-01-21 09:59:00,
2013-01-21 04:14:00,45.3,41.0,30.14,South,186,0.0,-999.0,85,-99.99,,,0.00,weatherlink.com 1.10,2013-01-21 10:14:00,
2013-01-21 04:29:00,44.5,40.0,30.15,South,186,0.0,-999.0,85,-99.99,,,0.00,weatherlink.com 1.10,2013-01-21 10:29:00,
2013-01-21 04:44:00,44.3,40.0,30.15,South,186,0.0,-999.0,86,-99.99,,,0.00,weatherlink.com 1.10,2013-01-21 10:44:00,
2013-01-21 05:00:00,43.8,40.0,30.15,South,186,0.0,-999.0,85,-99.99,,,0.00,weatherlink.com 1.10,2013-01-21 11:00:00,
2013-01-21 05:15:00,43.1,39.0,30.15,South,186,0.0,-999.0,85,-99.99,,,0.00,weatherlink.com 1.10,2013-01-21 11:15:00,
2013-01-21 05:30:00,42.2,38.0,30.15,South,186,0.0,-999.0,86,-99.99,,,0.00,weatherlink.com 1.10,2013-01-21 11:30:00,
2013-01-21 05:45:00,41.1,37.0,30.15,South,186,0.0,-999.0,86,-99.99,,,0.00,weatherlink.com 1.10,2013-01-21 11:45:00,
2013-01-21 06:00:00,41.2,37.0,30.15,South,186,0.0,-999.0,86,-99.99,,,0.00,weatherlink.com 1.10,2013-01-21 12:00:00,
2013-01-21 06:15:00,41.1,37.0,30.15,South,186,0.0,-999.0,86,-99.99,,,0.00,weatherlink.com 1.10,2013-01-21 12:15:00,
2013-01-21 06:30:00,40.9,37.0,30.15,South,186,0.0,-999.0,86,-99.99,,,0.00,weatherlink.com 1.10,2013-01-21 12:30:00,
2013-01-21 06:45:00,40.4,37.0,30.15,South,186,0.0,-999.0,86,-99.99,,,0.00,weatherlink.com 1.10,2013-01-21 12:45:00,
2013-01-21 07:00:00,40.6,37.0,30.16,South,186,0.0,-999.0,87,-99.99,,,0.00,weatherlink.com 1.10,2013-01-21 13:00:00,
2013-01-21 07:15:00,39.8,36.0,30.16,South,186,0.0,-999.0,87,-99.99,,,0.00,weatherlink.com 1.10,2013-01-21 13:15:00,
2013-01-21 07:30:00,39.8,36.0,30.17,South,186,0.0,-999.0,87,-99.99,,,0.00,weatherlink.com 1.10,2013-01-21 13:30:00,
2013-01-21 07:45:00,40.3,37.0,30.18,South,186,0.0,-999.0,87,-99.99,,,0.00,weatherlink.com 1.10,2013-01-21 13:45:00,
2013-01-21 08:00:00,40.7,38.0,30.18,South,186,0.0,-999.0,88,-99.99,,,0.00,weatherlink.com 1.10,2013-01-21 14:00:00,
2013-01-21 08:15:00,41.1,38.0,30.18,South,186,0.0,-999.0,88,-99.99,,,0.00,weatherlink.com 1.10,2013-01-21 14:15:00,
2013-01-21 08:30:00,42.5,39.0,30.18,South,186,0.0,-999.0,88,-99.99,,,0.00,weatherlink.com 1.10,2013-01-21 14:30:00,
2013-01-21 08:45:00,44.1,41.0,30.20,South,186,0.0,-999.0,88,-99.99,,,0.00,weatherlink.com 1.10,2013-01-21 14:45:00,
2013-01-21 09:00:00,44.8,42.0,30.20,South,186,0.0,-999.0,88,-99.99,,,0.00,weatherlink.com 1.10,2013-01-21 15:00:00,
2013-01-21 09:15:00,45.5,43.0,30.21,South,186,0.0,-999.0,89,-99.99,,,0.00,weatherlink.com 1.10,2013-01-21 15:15:00,
2013-01-21 09:30:00,46.2,43.0,30.21,South,186,0.0,-999.0,89,-99.99,,,0.00,weatherlink.com 1.10,2013-01-21 15:30:00,
2013-01-21 09:45:00,47.5,45.0,30.21,South,186,0.0,-999.0,89,-99.99,,,0.00,weatherlink.com 1.10,2013-01-21 15:45:00,
2013-01-21 10:00:00,49.7,47.0,30.22,South,186,0.0,-999.0,89,-99.99,,,0.00,weatherlink.com 1.10,2013-01-21 16:00:00,
2013-01-21 10:15:00,51.2,48.0,30.23,ESE,109,0.0,-999.0,89,-99.99,,,0.00,weatherlink.com 1.10,2013-01-21 16:15:00,
2013-01-21 10:30:00,52.4,49.0,30.23,NNE,15,4.0,-999.0,88,-99.99,,,0.00,weatherlink.com 1.10,2013-01-21 16:30:00,
2013-01-21 10:45:00,53.7,50.0,30.23,North,9,1.0,-999.0,86,-99.99,,,0.00,weatherlink.com 1.10,2013-01-21 16:45:00,
2013-01-21 11:00:00,55.4,51.0,30.23,WNW,286,2.0,-999.0,84,-99.99,,,0.00,weatherlink.com 1.10,2013-01-21 17:00:00,
2013-01-21 11:15:00,56.4,51.0,30.22,NNW,333,0.0,-999.0,82,-99.99,,,0.00,weatherlink.com 1.10,2013-01-21 17:15:00,
2013-01-21 11:30:00,58.1,52.0,30.22,WNW,298,0.0,-999.0,80,-99.99,,,0.00,weatherlink.com 1.10,2013-01-21 17:30:00,
2013-01-21 11:45:00,59.2,52.0,30.22,North,360,0.0,-999.0,78,-99.99,,,0.00,weatherlink.com 1.10,2013-01-21 17:45:00,
2013-01-21 12:00:00,60.2,53.0,30.21,WNW,296,0.0,-999.0,76,-99.99,,,0.00,weatherlink.com 1.10,2013-01-21 18:00:00,
2013-01-21 12:16:00,61.3,53.0,30.20,NE,48,0.0,-999.0,74,-99.99,,,0.00,weatherlink.com 1.10,2013-01-21 18:16:00,
2013-01-21 12:31:00,62.3,53.0,30.20,NNE,29,0.0,-999.0,71,-99.99,,,0.00,weatherlink.com 1.10,2013-01-21 18:31:00,
2013-01-21 12:46:00,63.1,53.0,30.19,NNW,337,0.0,-999.0,70,-99.99,,,0.00,weatherlink.com 1.10,2013-01-21 18:46:00,
2013-01-21 13:01:00,63.7,54.0,30.19,North,9,4.0,-999.0,70,-99.99,,,0.00,weatherlink.com 1.10,2013-01-21 19:01:00,
2013-01-21 13:16:00,64.0,53.0,30.18,NE,53,5.0,-999.0,68,-99.99,,,0.00,weatherlink.com 1.10,2013-01-21 19:16:00,
2013-01-21 13:31:00,64.4,54.0,30.18,North,360,2.0,-999.0,68,-99.99,,,0.00,weatherlink.com 1.10,2013-01-21 19:31:00,
2013-01-21 13:46:00,64.3,53.0,30.18,WNW,286,1.0,-999.0,67,-99.99,,,0.00,weatherlink.com 1.10,2013-01-21 19:46:00,
2013-01-21 14:01:00,64.1,52.0,30.18,NW,312,1.0,-999.0,66,-99.99,,,0.00,weatherlink.com 1.10,2013-01-21 20:01:00,
2013-01-21 14:16:00,64.1,52.0,30.18,NNE,15,4.0,-999.0,65,-99.99,,,0.00,weatherlink.com 1.10,2013-01-21 20:16:00,
2013-01-21 14:31:00,64.1,52.0,30.18,NW,314,4.0,-999.0,64,-99.99,,,0.00,weatherlink.com 1.10,2013-01-21 20:31:00,
2013-01-21 14:46:00,63.7,51.0,30.18,North,360,4.0,-999.0,64,-99.99,,,0.00,weatherlink.com 1.10,2013-01-21 20:46:00,
2013-01-21 15:16:00,64.0,51.0,30.18,NNW,342,0.0,-999.0,64,-99.99,,,0.00,weatherlink.com 1.10,2013-01-21 21:16:00,
2013-01-21 15:31:00,64.0,51.0,30.18,WNW,303,1.0,-999.0,63,-99.99,,,0.00,weatherlink.com 1.10,2013-01-21 21:31:00,
2013-01-21 15:46:00,64.1,51.0,30.18,NW,319,0.0,-999.0,63,-99.99,,,0.00,weatherlink.com 1.10,2013-01-21 21:46:00,
2013-01-21 16:01:00,64.0,51.0,30.18,NNW,327,1.0,-999.0,62,-99.99,,,0.00,weatherlink.com 1.10,2013-01-21 22:01:00,
2013-01-21 16:16:00,63.4,50.0,30.18,NW,325,2.0,-999.0,62,-99.99,,,0.00,weatherlink.com 1.10,2013-01-21 22:16:00,
2013-01-21 16:31:00,63.0,49.0,30.18,NW,308,0.0,-999.0,61,-99.99,,,0.00,weatherlink.com 1.10,2013-01-21 22:31:00,
2013-01-21 16:46:00,62.6,48.0,30.18,North,351,0.0,-999.0,60,-99.99,,,0.00,weatherlink.com 1.10,2013-01-21 22:46:00,
2013-01-21 17:01:00,61.8,48.0,30.18,NW,313,0.0,-999.0,61,-99.99,,,0.00,weatherlink.com 1.10,2013-01-21 23:01:00,
2013-01-21 17:16:00,61.0,47.0,30.18,NW,313,0.0,-999.0,61,-99.99,,,0.00,weatherlink.com 1.10,2013-01-21 23:16:00,
2013-01-21 17:31:00,60.1,46.0,30.18,NW,313,0.0,-999.0,61,-99.99,,,0.00,weatherlink.com 1.10,2013-01-21 23:31:00,
2013-01-21 17:46:00,59.0,46.0,30.18,NW,313,0.0,-999.0,62,-99.99,,,0.00,weatherlink.com 1.10,2013-01-21 23:46:00,
2013-01-21 18:01:00,57.8,45.0,30.18,NW,313,0.0,-999.0,63,-99.99,,,0.00,weatherlink.com 1.10,2013-01-22 00:01:00,
2013-01-21 18:16:00,56.8,45.0,30.18,NW,313,0.0,-999.0,64,-99.99,,,0.00,weatherlink.com 1.10,2013-01-22 00:16:00,
2013-01-21 18:31:00,56.3,45.0,30.18,NW,313,0.0,-999.0,65,-99.99,,,0.00,weatherlink.com 1.10,2013-01-22 00:31:00,
2013-01-21 18:46:00,55.4,44.0,30.19,NW,313,0.0,-999.0,66,-99.99,,,0.00,weatherlink.com 1.10,2013-01-22 00:46:00,
2013-01-21 19:01:00,54.8,44.0,30.19,NW,313,0.0,-999.0,66,-99.99,,,0.00,weatherlink.com 1.10,2013-01-22 01:01:00,
2013-01-21 19:16:00,54.2,43.0,30.20,NW,313,0.0,-999.0,67,-99.99,,,0.00,weatherlink.com 1.10,2013-01-22 01:16:00,
2013-01-21 19:31:00,53.6,43.0,30.20,NW,313,0.0,-999.0,68,-99.99,,,0.00,weatherlink.com 1.10,2013-01-22 01:31:00,
2013-01-21 19:46:00,53.2,43.0,30.20,NW,313,0.0,-999.0,68,-99.99,,,0.00,weatherlink.com 1.10,2013-01-22 01:46:00,
2013-01-21 20:01:00,52.6,42.0,30.20,NW,313,0.0,-999.0,68,-99.99,,,0.00,weatherlink.com 1.10,2013-01-22 02:01:00,
2013-01-21 20:16:00,51.9,42.0,30.20,NW,313,0.0,-999.0,69,-99.99,,,0.00,weatherlink.com 1.10,2013-01-22 02:16:00,
2013-01-21 20:31:00,50.7,41.0,30.20,NW,313,0.0,-999.0,70,-99.99,,,0.00,weatherlink.com 1.10,2013-01-22 02:31:00,
2013-01-21 20:46:00,51.0,42.0,30.20,NW,313,0.0,-999.0,70,-99.99,,,0.00,weatherlink.com 1.10,2013-01-22 02:46:00,
2013-01-21 21:01:00,50.8,41.0,30.20,NW,313,0.0,-999.0,70,-99.99,,,0.00,weatherlink.com 1.10,2013-01-22 03:01:00,
2013-01-21 21:16:00,50.2,41.0,30.21,NW,313,0.0,-999.0,70,-99.99,,,0.00,weatherlink.com 1.10,2013-01-22 03:16:00,
2013-01-21 21:31:00,49.7,41.0,30.21,NW,313,0.0,-999.0,71,-99.99,,,0.00,weatherlink.com 1.10,2013-01-22 03:31:00,
2013-01-21 21:46:00,48.3,40.0,30.21,NW,313,0.0,-999.0,72,-99.99,,,0.00,weatherlink.com 1.10,2013-01-22 03:46:00,
2013-01-21 22:01:00,48.8,40.0,30.21,NW,313,0.0,-999.0,72,-99.99,,,0.00,weatherlink.com 1.10,2013-01-22 04:01:00,
2013-01-21 22:16:00,48.5,40.0,30.22,NW,313,0.0,-999.0,73,-99.99,,,0.00,weatherlink.com 1.10,2013-01-22 04:16:00,
2013-01-21 22:31:00,48.2,40.0,30.21,NW,313,0.0,-999.0,73,-99.99,,,0.00,weatherlink.com 1.10,2013-01-22 04:31:00,
2013-01-21 22:46:00,47.6,39.0,30.22,NW,313,0.0,-999.0,73,-99.99,,,0.00,weatherlink.com 1.10,2013-01-22 04:46:00,
2013-01-21 23:01:00,46.9,39.0,30.21,NW,313,0.0,-999.0,74,-99.99,,,0.00,weatherlink.com 1.10,2013-01-22 05:01:00,
2013-01-21 23:16:00,46.5,39.0,30.21,NW,313,0.0,-999.0,75,-99.99,,,0.00,weatherlink.com 1.10,2013-01-22 05:16:00,
2013-01-21 23:31:00,46.2,39.0,30.21,NW,313,0.0,-999.0,75,-99.99,,,0.00,weatherlink.com 1.10,2013-01-22 05:31:00,
2013-01-21 23:46:00,45.9,39.0,30.21,NW,313,0.0,-999.0,76,-99.99,,,0.00,weatherlink.com 1.10,2013-01-22 05:46:00,